This is the latest recevied weather packets stored in our database for station/object KB4NWJ. If no packets are shown the sender has not sent any weather packets the latest 10 day(s).
| Time | Temp. | Humidity | Pressure | Rain* | Wind** | Luminosity | Snow |
|---|---|---|---|---|---|---|---|
| 1777679239 | 16.11° C | 79% | 1013.7 hPa | 0 mm | - | 6 W/m² | - |
| 1777678937 | 16.11° C | 80% | 1013.7 hPa | 0 mm | - | 10 W/m² | - |
| 1777678635 | 16.11° C | 80% | 1013.6 hPa | 0 mm | - | 13 W/m² | - |
| 1777678332 | 16.67° C | 79% | 1013.8 hPa | 0 mm | - | 16 W/m² | - |
| 1777678027 | 16.67° C | 79% | 1013.8 hPa | 0 mm | - | 18 W/m² | - |
| 1777677725 | 16.67° C | 78% | 1013.5 hPa | 0 mm | - | 21 W/m² | - |
| 1777677422 | 16.67° C | 77% | 1013.6 hPa | 0 mm | - | 22 W/m² | - |
| 1777677120 | 16.67° C | 78% | 1013.6 hPa | 0 mm | - | 25 W/m² | - |
| 1777676818 | 16.67° C | 79% | 1013.5 hPa | 0 mm | - | 32 W/m² | - |
| 1777676517 | 16.67° C | 77% | 1013.5 hPa | 0 mm | - | 33 W/m² | - |
| 1777676214 | 16.67° C | 77% | 1013.4 hPa | 0 mm | - | 36 W/m² | - |
| 1777675910 | 17.22° C | 78% | 1013.5 hPa | 0 mm | - | 42 W/m² | - |
| 1777675607 | 17.22° C | 77% | 1013.6 hPa | 0 mm | - | 43 W/m² | - |
| 1777675304 | 17.22° C | 76% | 1013.7 hPa | 0 mm | - | 42 W/m² | - |
| 1777675001 | 17.22° C | 76% | 1013.7 hPa | 0 mm | - | 46 W/m² | - |
| 1777674698 | 17.78° C | 78% | 1013.5 hPa | 0 mm | - | 49 W/m² | - |
| 1777674394 | 17.78° C | 76% | 1013.5 hPa | 0 mm | - | 56 W/m² | - |
| 1777674091 | 17.78° C | 76% | 1013.3 hPa | 0 mm | - | 85 W/m² | - |
| 1777673787 | 17.78° C | 76% | 1013.4 hPa | 0 mm | - | 93 W/m² | - |
| 1777673485 | 17.78° C | 76% | 1013.4 hPa | 0 mm | - | 105 W/m² | - |
| 1777673182 | 17.78° C | 74% | 1013.2 hPa | 0 mm | - | 96 W/m² | - |
| 1777672879 | 17.78° C | 74% | 1013.3 hPa | 0 mm | - | 113 W/m² | - |
| 1777672576 | 18.33° C | 73% | 1012.8 hPa | 0 mm | - | 132 W/m² | - |
| 1777672271 | 17.78° C | 73% | 1012.9 hPa | 0 mm | - | 132 W/m² | - |
| 1777671966 | 18.33° C | 73% | 1013 hPa | 0 mm | - | 143 W/m² | - |
* Rain latest hour (hover to see other rain measurements)
** Current wind speed in m/s (hover to see current wind gust speed)